Regional Weather Roundup
Issued by NWS

Home | Current Version | Previous Version | Text Only | Print | Product List | Glossary On
Versions: 1 2 3 4 5 6 7 8 9 10 11 12 13 14 15 16 17 18 19 20 21 22 23 24 25 26 27 28 29 30 31 32 33 34 35 36 37 38 39 40 41 42 43 44 45 46 47 48 49 50
474
ASUS43 KTOP 210559
RWRKS

WEATHER ROUNDUP FOR KANSAS
NATIONAL WEATHER SERVICE GOODLAND KS
100 AM CDT MON AUG 21 2017

NOTE:  "FAIR" INDICATES FEW OR NO CLOUDS BELOW 12,000 FEET WITH NO
SIGNIFICANT WEATHER AND/OR OBSTRUCTIONS TO VISIBILITY.

KSZ001>006-013>018-027>032-041>047-210700-
NORTHWEST KANSAS

CITY           SKY/WX    TMP DP  RH WIND       PRES   REMARKS
GOODLAND       CLOUDY    69  63  81 S7        30.02S
6HR MIN TEMP:  69; 6HR MAX TEMP:  87;

HAYS           CLOUDY    81  68  64 S16G23    29.99R
HILL CITY      CLOUDY    80  64  58 S8        29.98R
6HR MIN TEMP:  79; 6HR MAX TEMP:  97;

RUSSELL        CLOUDY    81  69  67 S13G21    29.97S
6HR MIN TEMP:  81; 6HR MAX TEMP:  93;

$$

KSZ061>065-074>080-084>089-210700-
SOUTHWEST KANSAS

CITY           SKY/WX    TMP DP  RH WIND       PRES   REMARKS
DODGE CITY     CLOUDY    78  63  59 S14       30.05R
6HR MIN TEMP:  78; 6HR MAX TEMP:  93;

ELKHART          N/A     70  61  73 S10         N/A
GARDEN CITY    CLOUDY    75  64  68 S9        30.04R
6HR MIN TEMP:  75; 6HR MAX TEMP:  90;

GREAT BEND     PTCLDY    80  71  74 S16       30.00S
LIBERAL        CLOUDY    74  66  76 S13       30.07R
$$

KSZ066>073-081>083-090>101-210700-
SOUTHEAST KANSAS

CITY           SKY/WX    TMP DP  RH WIND       PRES   REMARKS
CHANUTE        CLOUDY    77  73  87 SE7       30.06S
6HR MIN TEMP:  77; 6HR MAX TEMP:  90;

COFFEYVILLE    CLOUDY    80  74  81 S6        30.05R
6HR MIN TEMP:  80; 6HR MAX TEMP:  87;

HUTCHINSON     PTCLDY    81  69  67 S14       30.01S
6HR MIN TEMP:  81; 6HR MAX TEMP:  92;

MEDICINE LODGE   N/A     77  65  66 SE7       30.02F
NEWTON         CLOUDY    79  71  76 S10       30.04R
PARSONS        CLEAR     80  74  81 S3        30.06S
6HR MIN TEMP:  78; 6HR MAX TEMP:  88;

WICHITA INTL   CLOUDY    80  73  79 SE10      30.02S
6HR MIN TEMP:  80; 6HR MAX TEMP:  93;

WICHITA JABRA  MOCLDY    80  73  79 S12       30.03S
6HR MIN TEMP:  80; 6HR MAX TEMP:  90;

WICHITA MCCONL CLOUDY    80  71  75 S10       30.04R
WINFIELD       CLOUDY    80  73  79 S10       30.05S
6HR MIN TEMP:  79; 6HR MAX TEMP:  90;

$$

KSZ007>012-019>026-033>040-048>060-102>105-210700-
NORTHEAST KANSAS

CITY           SKY/WX    TMP DP  RH WIND       PRES   REMARKS
CONCORDIA      MOCLDY    81  68  64 S13       29.97R
6HR MIN TEMP:  81; 6HR MAX TEMP:  91;

EMPORIA        PTCLDY    77  72  84 S13       30.03S
6HR MIN TEMP:  77; 6HR MAX TEMP:  89;

LAWRENCE       CLEAR     77  69  76 S8        30.02F
6HR MIN TEMP:  76; 6HR MAX TEMP:  87;

MANHATTAN      PTCLDY    82  72  71 S9        29.99S
6HR MIN TEMP:  82; 6HR MAX TEMP:  91;

OLATHE IND     CLEAR     75  67  76 S10       30.04F
6HR MIN TEMP:  75; 6HR MAX TEMP:  85;

OLATHE EXE     PTCLDY    72  66  81 S6        30.04F
6HR MIN TEMP:  72; 6HR MAX TEMP:  84;

SALINA         PTCLDY    85  68  56 S14       29.99R
6HR MIN TEMP:  85; 6HR MAX TEMP:  97;

TOPEKA BILLARD CLEAR     79  73  82 S10       30.01F
6HR MIN TEMP:  79; 6HR MAX TEMP:  87;

TOPEKA FORBES  PTCLDY    78  72  81 SE9       30.03S
6HR MIN TEMP:  77; 6HR MAX TEMP:  87;

$$




USA.gov is the U.S. government's official web portal to all federal, state and local government web resources and services.